Time,TemperatureF,DewpointF,PressureIn,WindDirection,WindDirectionDegrees,WindSpeedMPH,WindSpeedGustMPH,Humidity,HourlyPrecipIn,Conditions,Clouds,dailyrainin,SoftwareType,DateUTC
2013-07-25 00:10:00,71.6,66.0,29.88,NW,324,3.0,7.0,82,0.00,,,0.00,weatherlink.com 1.10,2013-07-25 04:10:00,
2013-07-25 00:25:00,71.3,66.0,29.88,NNW,342,2.0,8.0,83,0.00,,,0.00,weatherlink.com 1.10,2013-07-25 04:25:00,
2013-07-25 00:40:00,71.3,67.0,29.89,North,354,4.0,9.0,86,0.00,,,0.00,weatherlink.com 1.10,2013-07-25 04:40:00,
2013-07-25 00:55:00,71.9,68.0,29.88,East,98,4.0,10.0,86,0.00,,,0.00,weatherlink.com 1.10,2013-07-25 04:55:00,
2013-07-25 01:10:00,72.0,67.0,29.88,ENE,72,10.0,10.0,85,0.00,,,0.00,weatherlink.com 1.10,2013-07-25 05:10:00,
2013-07-25 01:25:00,71.5,67.0,29.89,NW,312,8.0,12.0,85,0.00,,,0.00,weatherlink.com 1.10,2013-07-25 05:25:00,
2013-07-25 01:40:00,71.0,66.0,29.89,NW,323,7.0,15.0,84,0.00,,,0.00,weatherlink.com 1.10,2013-07-25 05:40:00,
2013-07-25 01:55:00,70.7,65.0,29.89,NNE,21,4.0,14.0,82,0.00,,,0.00,weatherlink.com 1.10,2013-07-25 05:55:00,
2013-07-25 02:10:00,70.3,64.0,29.90,North,6,12.0,14.0,80,0.00,,,0.00,weatherlink.com 1.10,2013-07-25 06:10:00,
2013-07-25 02:25:00,69.7,64.0,29.89,ENE,68,4.0,15.0,81,0.00,,,0.00,weatherlink.com 1.10,2013-07-25 06:25:00,
2013-07-25 02:40:00,69.0,64.0,29.91,NW,326,3.0,12.0,83,0.00,,,0.00,weatherlink.com 1.10,2013-07-25 06:40:00,
2013-07-25 02:55:00,68.4,63.0,29.92,NNE,29,2.0,9.0,84,0.00,,,0.00,weatherlink.com 1.10,2013-07-25 06:55:00,
2013-07-25 03:10:00,67.8,62.0,29.91,NNE,21,6.0,13.0,81,0.00,,,0.00,weatherlink.com 1.10,2013-07-25 07:10:00,
2013-07-25 03:25:00,67.5,61.0,29.90,NE,34,5.0,13.0,80,0.00,,,0.00,weatherlink.com 1.10,2013-07-25 07:25:00,
2013-07-25 03:40:00,67.4,61.0,29.92,NW,324,9.0,14.0,80,0.00,,,0.00,weatherlink.com 1.10,2013-07-25 07:40:00,
2013-07-25 03:56:00,67.2,61.0,29.92,North,350,1.0,11.0,81,0.00,,,0.00,weatherlink.com 1.10,2013-07-25 07:56:00,
2013-07-25 04:11:00,67.1,60.0,29.93,ESE,105,7.0,13.0,79,0.00,,,0.00,weatherlink.com 1.10,2013-07-25 08:11:00,
2013-07-25 04:26:00,66.8,60.0,29.93,NW,311,3.0,12.0,80,0.00,,,0.00,weatherlink.com 1.10,2013-07-25 08:26:00,
2013-07-25 04:41:00,66.5,61.0,29.93,NE,51,4.0,18.0,81,0.00,,,0.00,weatherlink.com 1.10,2013-07-25 08:41:00,
2013-07-25 04:56:00,66.3,60.0,29.94,North,355,6.0,12.0,81,0.00,,,0.00,weatherlink.com 1.10,2013-07-25 08:56:00,
2013-07-25 05:11:00,66.1,60.0,29.95,NE,43,3.0,14.0,81,0.00,,,0.00,weatherlink.com 1.10,2013-07-25 09:11:00,
2013-07-25 05:26:00,65.9,60.0,29.95,NNE,27,6.0,12.0,80,0.00,,,0.00,weatherlink.com 1.10,2013-07-25 09:26:00,
2013-07-25 05:41:00,65.7,59.0,29.95,NE,36,2.0,14.0,80,0.00,,,0.00,weatherlink.com 1.10,2013-07-25 09:41:00,
2013-07-25 06:26:00,65.3,59.0,29.96,ENE,71,8.0,19.0,81,0.00,,,0.00,weatherlink.com 1.10,2013-07-25 10:26:00,
2013-07-25 06:41:00,65.3,59.0,29.96,NE,41,5.0,13.0,81,0.00,,,0.00,weatherlink.com 1.10,2013-07-25 10:41:00,
2013-07-25 06:56:00,65.1,60.0,29.97,East,100,5.0,16.0,82,0.00,,,0.00,weatherlink.com 1.10,2013-07-25 10:56:00,
2013-07-25 07:11:00,65.0,60.0,29.97,NNE,29,5.0,14.0,83,0.00,,,0.00,weatherlink.com 1.10,2013-07-25 11:11:00,
2013-07-25 07:26:00,65.4,61.0,29.98,NW,322,6.0,11.0,84,0.00,,,0.00,weatherlink.com 1.10,2013-07-25 11:26:00,
2013-07-25 07:41:00,65.7,60.0,29.98,NE,50,4.0,13.0,83,0.00,,,0.00,weatherlink.com 1.10,2013-07-25 11:41:00,
2013-07-25 07:56:00,65.9,61.0,29.99,NE,42,8.0,14.0,83,0.00,,,0.00,weatherlink.com 1.10,2013-07-25 11:56:00,
2013-07-25 08:11:00,66.0,61.0,29.99,NE,40,7.0,13.0,84,0.00,,,0.00,weatherlink.com 1.10,2013-07-25 12:11:00,
2013-07-25 08:41:00,65.9,61.0,30.00,NNE,26,6.0,11.0,83,0.00,,,0.00,weatherlink.com 1.10,2013-07-25 12:41:00,
2013-07-25 08:56:00,66.3,61.0,30.00,ESE,110,4.0,12.0,83,0.00,,,0.00,weatherlink.com 1.10,2013-07-25 12:56:00,
2013-07-25 09:11:00,66.4,61.0,30.01,North,350,3.0,14.0,83,0.00,,,0.00,weatherlink.com 1.10,2013-07-25 13:11:00,
2013-07-25 09:26:00,66.1,61.0,30.02,ESE,113,6.0,13.0,84,0.00,,,0.00,weatherlink.com 1.10,2013-07-25 13:26:00,
2013-07-25 09:41:00,66.0,61.0,30.01,ENE,70,9.0,14.0,85,0.00,,,0.00,weatherlink.com 1.10,2013-07-25 13:41:00,
2013-07-25 09:56:00,65.7,62.0,30.03,NNE,27,6.0,15.0,86,0.00,,,0.00,weatherlink.com 1.10,2013-07-25 13:56:00,
2013-07-25 10:11:00,65.5,61.0,30.03,NE,52,8.0,14.0,86,0.00,,,0.00,weatherlink.com 1.10,2013-07-25 14:11:00,
2013-07-25 10:27:00,65.7,62.0,30.03,NNW,333,2.0,10.0,86,0.00,,,0.00,weatherlink.com 1.10,2013-07-25 14:27:00,
2013-07-25 10:42:00,65.8,62.0,30.03,NNE,20,3.0,12.0,87,0.00,,,0.00,weatherlink.com 1.10,2013-07-25 14:42:00,
2013-07-25 10:57:00,65.9,62.0,30.03,NE,52,4.0,16.0,87,0.00,,,0.00,weatherlink.com 1.10,2013-07-25 14:57:00,
2013-07-25 11:12:00,65.6,62.0,30.03,ENE,62,2.0,14.0,87,0.00,,,0.00,weatherlink.com 1.10,2013-07-25 15:12:00,
2013-07-25 11:27:00,65.8,62.0,30.03,North,355,5.0,12.0,87,0.00,,,0.00,weatherlink.com 1.10,2013-07-25 15:27:00,
2013-07-25 11:42:00,65.8,62.0,30.02,NE,56,8.0,15.0,87,0.00,,,0.00,weatherlink.com 1.10,2013-07-25 15:42:00,
2013-07-25 11:57:00,66.3,62.0,30.02,NNE,23,5.0,11.0,87,0.00,,,0.00,weatherlink.com 1.10,2013-07-25 15:57:00,
2013-07-25 12:12:00,66.4,63.0,30.02,NE,36,5.0,23.0,87,0.00,,,0.00,weatherlink.com 1.10,2013-07-25 16:12:00,
2013-07-25 12:27:00,66.9,63.0,30.02,East,83,9.0,14.0,86,0.00,,,0.00,weatherlink.com 1.10,2013-07-25 16:27:00,
2013-07-25 12:42:00,66.4,63.0,30.02,ENE,75,7.0,16.0,88,0.00,,,0.00,weatherlink.com 1.10,2013-07-25 16:42:00,
2013-07-25 12:57:00,66.3,62.0,30.02,ENE,58,3.0,11.0,87,0.00,,,0.00,weatherlink.com 1.10,2013-07-25 16:57:00,
2013-07-25 13:12:00,66.1,63.0,30.02,NW,304,2.0,12.0,88,0.00,,,0.00,weatherlink.com 1.10,2013-07-25 17:12:00,
2013-07-25 13:27:00,66.2,63.0,30.02,NNW,329,4.0,12.0,88,0.00,,,0.00,weatherlink.com 1.10,2013-07-25 17:27:00,
2013-07-25 13:42:00,66.2,62.0,30.02,East,82,6.0,10.0,87,0.00,,,0.00,weatherlink.com 1.10,2013-07-25 17:42:00,
2013-07-25 13:57:00,66.2,62.0,30.02,NE,39,3.0,11.0,87,0.00,,,0.00,weatherlink.com 1.10,2013-07-25 17:57:00,
2013-07-25 14:12:00,66.4,63.0,30.02,North,7,6.0,11.0,87,0.00,,,0.00,weatherlink.com 1.10,2013-07-25 18:12:00,
2013-07-25 14:27:00,66.3,62.0,30.02,ENE,58,4.0,16.0,87,0.00,,,0.00,weatherlink.com 1.10,2013-07-25 18:27:00,
2013-07-25 14:42:00,66.3,63.0,30.01,North,359,6.0,16.0,88,0.00,,,0.00,weatherlink.com 1.10,2013-07-25 18:42:00,
2013-07-25 14:57:00,66.2,63.0,30.01,NE,51,8.0,11.0,88,0.00,,,0.00,weatherlink.com 1.10,2013-07-25 18:57:00,
2013-07-25 15:12:00,65.9,62.0,30.01,ESE,103,5.0,13.0,88,0.00,,,0.00,weatherlink.com 1.10,2013-07-25 19:12:00,
2013-07-25 15:27:00,65.9,62.0,30.01,NW,311,6.0,13.0,88,0.00,,,0.00,weatherlink.com 1.10,2013-07-25 19:27:00,
2013-07-25 15:42:00,65.9,62.0,30.01,North,360,4.0,13.0,88,0.00,,,0.00,weatherlink.com 1.10,2013-07-25 19:42:00,
2013-07-25 15:57:00,65.6,62.0,30.01,NE,52,3.0,12.0,89,0.00,,,0.00,weatherlink.com 1.10,2013-07-25 19:57:00,
2013-07-25 16:12:00,65.4,62.0,30.01,ENE,63,5.0,15.0,89,0.00,,,0.00,weatherlink.com 1.10,2013-07-25 20:12:00,
2013-07-25 16:27:00,65.2,62.0,30.01,WNW,294,3.0,12.0,89,0.00,,,0.00,weatherlink.com 1.10,2013-07-25 20:27:00,
2013-07-25 16:42:00,65.1,62.0,30.02,NW,316,8.0,12.0,90,0.00,,,0.00,weatherlink.com 1.10,2013-07-25 20:42:00,
2013-07-25 16:57:00,65.0,62.0,30.02,NW,326,4.0,12.0,90,0.00,,,0.00,weatherlink.com 1.10,2013-07-25 20:57:00,
2013-07-25 17:12:00,64.7,62.0,30.01,ENE,72,6.0,12.0,91,0.00,,,0.00,weatherlink.com 1.10,2013-07-25 21:12:00,
2013-07-25 17:27:00,64.5,62.0,30.02,NE,37,4.0,9.0,91,0.00,,,0.00,weatherlink.com 1.10,2013-07-25 21:27:00,
2013-07-25 17:42:00,64.2,62.0,30.02,North,359,5.0,12.0,92,0.00,,,0.00,weatherlink.com 1.10,2013-07-25 21:42:00,
2013-07-25 17:57:00,64.3,62.0,30.02,WNW,283,2.0,10.0,92,0.00,,,0.00,weatherlink.com 1.10,2013-07-25 21:57:00,
2013-07-25 18:12:00,64.4,62.0,30.01,NNE,23,2.0,12.0,92,0.00,,,0.00,weatherlink.com 1.10,2013-07-25 22:12:00,
2013-07-25 18:27:00,64.4,62.0,30.01,North,8,5.0,10.0,92,0.00,,,0.00,weatherlink.com 1.10,2013-07-25 22:27:00,
2013-07-25 18:42:00,64.4,62.0,30.01,NW,311,7.0,12.0,92,0.00,,,0.00,weatherlink.com 1.10,2013-07-25 22:42:00,
2013-07-25 18:58:00,64.3,62.0,30.01,NE,56,2.0,10.0,92,0.00,,,0.00,weatherlink.com 1.10,2013-07-25 22:58:00,
2013-07-25 19:12:00,64.3,62.0,30.01,NNE,30,5.0,12.0,92,0.00,,,0.00,weatherlink.com 1.10,2013-07-25 23:12:00,
2013-07-25 19:27:00,64.2,62.0,30.01,WNW,285,2.0,10.0,92,0.00,,,0.00,weatherlink.com 1.10,2013-07-25 23:27:00,
2013-07-25 19:42:00,64.1,62.0,30.01,NNW,347,9.0,13.0,92,0.00,,,0.00,weatherlink.com 1.10,2013-07-25 23:42:00,
2013-07-25 19:57:00,64.1,62.0,30.01,East,97,3.0,14.0,92,0.00,,,0.00,weatherlink.com 1.10,2013-07-25 23:57:00,
2013-07-25 20:12:00,64.1,62.0,30.01,NW,324,7.0,12.0,92,0.00,,,0.00,weatherlink.com 1.10,2013-07-26 00:12:00,
2013-07-25 20:28:00,63.7,62.0,30.01,NNW,330,3.0,11.0,94,0.00,,,0.00,weatherlink.com 1.10,2013-07-26 00:28:00,
2013-07-25 20:42:00,63.6,62.0,30.02,NNE,25,6.0,11.0,95,0.01,,,0.01,weatherlink.com 1.10,2013-07-26 00:42:00,
2013-07-25 20:57:00,63.6,62.0,30.02,North,6,8.0,8.0,95,0.01,,,0.01,weatherlink.com 1.10,2013-07-26 00:57:00,
2013-07-25 21:12:00,63.7,63.0,30.02,North,349,3.0,8.0,96,0.02,,,0.02,weatherlink.com 1.10,2013-07-26 01:12:00,
2013-07-25 21:27:00,63.8,63.0,30.01,ENE,77,3.0,10.0,96,0.03,,,0.03,weatherlink.com 1.10,2013-07-26 01:27:00,
2013-07-25 21:42:00,63.8,63.0,30.01,ENE,62,4.0,11.0,96,0.03,,,0.04,weatherlink.com 1.10,2013-07-26 01:42:00,
2013-07-25 21:57:00,63.9,63.0,30.00,East,83,3.0,10.0,97,0.04,,,0.05,weatherlink.com 1.10,2013-07-26 01:57:00,
2013-07-25 22:13:00,64.1,63.0,30.00,NNE,13,3.0,10.0,97,0.05,,,0.07,weatherlink.com 1.10,2013-07-26 02:13:00,
2013-07-25 22:28:00,64.2,63.0,30.00,NNE,33,6.0,10.0,97,0.08,,,0.11,weatherlink.com 1.10,2013-07-26 02:28:00,
2013-07-25 22:43:00,64.3,64.0,30.00,NE,39,4.0,9.0,97,0.10,,,0.14,weatherlink.com 1.10,2013-07-26 02:43:00,
2013-07-25 22:58:00,64.5,64.0,30.00,ENE,58,4.0,10.0,97,0.13,,,0.18,weatherlink.com 1.10,2013-07-26 02:58:00,
2013-07-25 23:13:00,64.6,64.0,30.00,NE,41,5.0,10.0,98,0.13,,,0.20,weatherlink.com 1.10,2013-07-26 03:13:00,
2013-07-25 23:28:00,64.6,64.0,29.99,NNE,32,3.0,15.0,98,0.11,,,0.22,weatherlink.com 1.10,2013-07-26 03:28:00,
2013-07-25 23:43:00,64.7,64.0,29.99,NNE,31,8.0,11.0,98,0.09,,,0.23,weatherlink.com 1.10,2013-07-26 03:43:00,
2013-07-25 23:58:00,64.7,64.0,29.98,North,356,2.0,8.0,98,0.06,,,0.24,weatherlink.com 1.10,2013-07-26 03:58:00,